Bloomington, IL

7:19 AM CDT on July 26, 2017 (GMT -0500)
Central Ill Regional

Weather History for KBMI - April, 2013

Change the Weather History Date:

Saturday, April 20, 2013

  Actual Average Record
Temperature  
Mean Temperature 38 °F -  
Max Temperature 48 °F 0 °F 79 °F (2005)
Min Temperature 30 °F - 30 °F (2013)
Degree Days  
Heating Degree Days 26    
Moisture  
Dew Point 27 °F    
Average Humidity 67    
Maximum Humidity 85    
Minimum Humidity 42    
Precipitation  
Precipitation 0.00 in - - ()
Sea Level Pressure  
Sea Level Pressure 30.28 in    
Wind  
Wind Speed 8 mph (NW)    
Max Wind Speed 13 mph    
Max Gust Speed -    
Visibility 10 miles    
Events      
Averages and records for this station are not official NWS values.
T = Trace of Precipitation, MM = Missing Value Source: NWS Daily Summary

Daily Weather History Graph

Daily Weather History Graph

Search for Another Location

Airport or City:

Trip Planner

Search our weather history database for the weather conditions in past years. The results will help you decide how hot, cold, wet, or windy it might be!

Date:

Astronomy

Apr. 20, 2013 Rise Set
Actual Time 6:09 AM CDT 7:40 PM CDT
Civil Twilight 5:40 AM CDT 8:08 PM CDT
Nautical Twilight 5:06 AM CDT 8:43 PM CDT
Astronomical Twilight 4:29 AM CDT 9:20 PM CDT
Moon 2:22 PM CDT (4/20) 3:00 AM CDT (4/20)
Length of Visible Light 14h 28m
Length of Day
13h 30m
Waxing Gibbous, 71% of the Moon is Illuminated
Apr 20
Waxing Gibbous
Apr 25
Full
May 2
Last Quarter
May 9
New
May 17
First Quarter

Hourly Weather History & Observations

Time (CDT) Temp. Windchill Dew Point Humidity Pressure Visibility Wind Dir Wind Speed Gust Speed Precip Events Conditions
12:56 AM 34.0 °F 25.0 °F 26.1 °F 73% 30.07 in 10.0 mi WNW 12.7 mph - N/A   Clear
1:56 AM 32.9 °F 24.7 °F 25.2 °F 73% 30.08 in 10.0 mi WNW 10.4 mph - N/A   Clear
2:56 AM 32.0 °F 24.2 °F 26.1 °F 79% 30.10 in 10.0 mi WNW 9.2 mph - N/A   Clear
3:56 AM 31.1 °F 23.7 °F 26.1 °F 82% 30.12 in 10.0 mi WNW 8.1 mph - N/A   Clear
4:56 AM 31.1 °F 24.5 °F 26.1 °F 82% 30.14 in 10.0 mi West 6.9 mph - N/A   Clear
5:56 AM 30.0 °F 22.4 °F 26.1 °F 85% 30.17 in 10.0 mi WNW 8.1 mph - N/A   Clear
6:56 AM 31.1 °F 27.7 °F 27.1 °F 85% 30.22 in 10.0 mi West 3.5 mph - N/A   Clear
7:56 AM 32.9 °F 27.5 °F 28.0 °F 82% 30.25 in 10.0 mi NW 5.8 mph - N/A   Clear
8:56 AM 36.0 °F 32.1 °F 28.0 °F 73% 30.28 in 10.0 mi WNW 4.6 mph - N/A   Partly Cloudy
9:56 AM 37.9 °F 34.4 °F 28.0 °F 68% 30.30 in 10.0 mi WNW 4.6 mph - N/A   Mostly Cloudy
10:56 AM 41.0 °F 35.8 °F 25.2 °F 53% 30.32 in 10.0 mi North 8.1 mph - N/A   Mostly Cloudy
11:56 AM 43.0 °F 40.3 °F 26.1 °F 51% 30.32 in 10.0 mi Variable 4.6 mph - N/A   Mostly Cloudy
12:56 PM 43.9 °F 39.3 °F 25.2 °F 48% 30.32 in 10.0 mi West 8.1 mph - N/A   Mostly Cloudy
1:56 PM 43.9 °F 41.3 °F 23.0 °F 44% 30.33 in 10.0 mi Variable 4.6 mph - N/A   Mostly Cloudy
2:56 PM 45.9 °F 44.6 °F 24.1 °F 42% 30.33 in 10.0 mi Variable 3.5 mph - N/A   Mostly Cloudy
3:56 PM 45.9 °F 43.6 °F 25.2 °F 44% 30.33 in 10.0 mi NNW 4.6 mph - N/A   Mostly Cloudy
4:56 PM 47.8 °F - 27.1 °F 45% 30.33 in 10.0 mi Variable 5.8 mph - N/A   Mostly Cloudy
5:56 PM 46.9 °F - 28.0 °F 48% 30.33 in 10.0 mi East 6.9 mph - N/A   Mostly Cloudy
6:56 PM 45.0 °F 40.6 °F 28.0 °F 52% 30.35 in 10.0 mi East 8.1 mph - 0.00 in   Partly Cloudy
7:56 PM 41.0 °F 36.4 °F 32.0 °F 70% 30.38 in 10.0 mi East 6.9 mph - N/A   Partly Cloudy
8:56 PM 38.8 °F 34.6 °F 32.0 °F 76% 30.41 in 10.0 mi East 5.8 mph - N/A   Clear
9:56 PM 36.0 °F 30.3 °F 31.1 °F 82% 30.43 in 10.0 mi East 6.9 mph - N/A   Clear
10:56 PM 34.9 °F 29.0 °F 30.0 °F 82% 30.43 in 10.0 mi ESE 6.9 mph - N/A   Clear
11:56 PM 34.9 °F 28.3 °F 29.1 °F 79% 30.43 in 10.0 mi ESE 8.1 mph - N/A   Clear